{"data":{"norad_id":57386,"epoch":"2026-09-21T22:18:29.903328Z","epoch_age_seconds":84258,"freshness":"FRESH","line1":"1 57386U 23100A   26264.92951277  .00001230  00000+0  88073-4 0  9992","line2":"2 57386  99.5051 305.2363 0006833 153.6251 206.5320 15.07046381174471","mean_motion":15.07046381,"eccentricity":0.0006833,"inclination_deg":99.5051,"raan_deg":305.2363,"arg_perigee_deg":153.6251,"mean_anomaly_deg":206.532,"bstar":8.8073e-5,"rev_number":17447,"period_min":95.551140174232,"perigee_km":540.50046388613,"apogee_km":549.96193887014,"semimajor_km":6923.3682013781,"source":"CELESTRAK","updated_at":"2026-09-22T09:00:26.163943Z"}}